| time (UTC) | temp C | wind direction | speed KPH | gust KPH | rain 1hr cm | rain 24hr cm | rain mn cm | humidity % | barometer mb |
| 20260510073100 | 9 | 101 | 0.0 | 0.0 | 0.00 | 1.12 | 0.99 | 92 | 1009.3 |
| 20260510071603 | 8 | 96 | 0.0 | 0.0 | 0.00 | 1.12 | 0.99 | 92 | 1009.0 |
| 20260510070109 | 8 | 96 | 0.0 | 12.9 | 0.00 | 1.12 | 0.99 | 92 | 1009.1 |
| 20260510064501 | 8 | 166 | 0.0 | 0.0 | 0.00 | 1.12 | 0.99 | 92 | 1009.3 |
| 20260510063103 | 8 | 166 | 0.0 | 3.2 | 0.00 | 1.12 | 0.99 | 91 | 1009.1 |
| 20260510061600 | 8 | 166 | 0.0 | 0.0 | 0.00 | 1.12 | 0.99 | 91 | 1009.2 |
| 20260510054605 | 9 | 166 | 0.0 | 6.4 | 0.00 | 1.14 | 0.99 | 91 | 1009.2 |
| 20260510053057 | 9 | 36 | 0.0 | 3.2 | 0.00 | 1.14 | 0.99 | 91 | 1009.0 |
| 20260510051557 | 9 | 36 | 0.0 | 0.0 | 0.00 | 1.14 | 0.99 | 91 | 1009.3 |
| 20260510050059 | 9 | 36 | 0.0 | 0.0 | 0.03 | 1.30 | 0.99 | 91 | 1009.6 |
| 20260510044611 | 9 | 36 | 0.0 | 1.6 | 0.08 | 1.30 | 0.99 | 91 | 1009.6 |
| 20260510043101 | 9 | 36 | 0.0 | 6.4 | 0.10 | 1.30 | 0.99 | 91 | 1009.7 |
| 20260510041559 | 9 | 100 | 0.0 | 9.7 | 0.15 | 1.30 | 0.99 | 91 | 1009.6 |
| 20260510040056 | 9 | 136 | 3.2 | 8.0 | 0.20 | 1.32 | 0.97 | 91 | 1010.0 |
| 20260510034555 | 9 | 145 | 1.6 | 4.8 | 0.20 | 1.30 | 0.94 | 89 | 1010.0 |
| 20260510033120 | 9 | 271 | 0.0 | 0.0 | 0.15 | 1.24 | 0.89 | 88 | 1010.1 |
| 20260510031619 | 10 | 277 | 0.0 | 4.8 | 0.13 | 1.22 | 0.86 | 86 | 1010.3 |
| 20260510030054 | 10 | 302 | 4.8 | 33.8 | 0.03 | 1.17 | 0.76 | 84 | 1010.2 |
| 20260510024553 | 11 | 302 | 17.7 | 33.8 | 0.00 | 1.14 | 0.71 | 87 | 1010.0 |
| 20260510023052 | 11 | 244 | 0.0 | 0.0 | 0.00 | 1.14 | 0.71 | 88 | 1009.0 |
| 20260510021551 | 11 | 243 | 0.0 | 4.8 | 0.00 | 1.14 | 0.71 | 88 | 1009.1 |
| 20260510020051 | 12 | 182 | 0.0 | 6.4 | 0.00 | 1.14 | 0.71 | 87 | 1008.3 |
| 20260510014602 | 12 | 126 | 1.6 | 11.3 | 0.00 | 1.14 | 0.71 | 87 | 1008.0 |
| 20260510013050 | 12 | 121 | 6.4 | 16.1 | 0.00 | 1.14 | 0.71 | 87 | 1007.4 |
| 20260510011557 | 12 | 120 | 0.0 | 20.9 | 0.00 | 1.14 | 0.71 | 88 | 1007.4 |
| 20260510010100 | 12 | 123 | 3.2 | 12.9 | 0.00 | 1.14 | 0.71 | 88 | 1007.3 |
| 20260510004555 | 12 | 133 | 0.0 | 8.0 | 0.00 | 1.14 | 0.71 | 88 | 1007.4 |
| 20260510003059 | 12 | 163 | 0.0 | 8.0 | 0.00 | 1.14 | 0.71 | 88 | 1007.3 |
| 20260510001549 | 12 | 113 | 0.0 | 8.0 | 0.00 | 1.14 | 0.71 | 87 | 1007.0 |
| 20260510000054 | 12 | 119 | 1.6 | 12.9 | 0.00 | 1.17 | 0.71 | 86 | 1006.9 |
| 20260509234604 | 12 | 137 | 0.0 | 9.7 | 0.00 | 1.17 | 0.71 | 85 | 1007.0 |
| 20260509233049 | 13 | 139 | 0.0 | 1.6 | 0.00 | 1.17 | 0.71 | 83 | 1006.8 |
| 20260509231548 | 13 | 139 | 0.0 | 6.4 | 0.00 | 1.17 | 0.71 | 82 | 1006.7 |
| 20260509230053 | 13 | 167 | 3.2 | 11.3 | 0.00 | 1.17 | 0.71 | 82 | 1006.6 |
| 20260509224546 | 13 | 144 | 0.0 | 6.4 | 0.00 | 1.17 | 0.71 | 82 | 1006.5 |
| 20260509223055 | 13 | 202 | 1.6 | 8.0 | 0.00 | 1.17 | 0.71 | 83 | 1006.6 |
| 20260509221549 | 13 | 160 | 0.0 | 9.7 | 0.00 | 1.17 | 0.71 | 84 | 1006.7 |
| 20260509220055 | 13 | 152 | 1.6 | 8.0 | 0.00 | 1.17 | 0.71 | 86 | 1006.7 |
| 20260509214543 | 13 | 123 | 4.8 | 16.1 | 0.00 | 1.17 | 0.71 | 85 | 1006.6 |
| 20260509213043 | 13 | 138 | 3.2 | 14.5 | 0.00 | 1.17 | 0.71 | 86 | 1006.9 |
| 20260509211543 | 13 | 197 | 1.6 | 11.3 | 0.00 | 1.17 | 0.71 | 88 | 1007.0 |
| 20260509210038 | 12 | 208 | 3.2 | 12.9 | 0.00 | 1.17 | 0.71 | 89 | 1007.0 |
| 20260509204541 | 12 | 126 | 0.0 | 11.3 | 0.00 | 1.17 | 0.71 | 91 | 1007.0 |
| 20260509203036 | 12 | 205 | 0.0 | 12.9 | 0.05 | 1.17 | 0.71 | 92 | 1007.3 |
| 20260509201531 | 11 | 80 | 0.0 | 11.3 | 0.15 | 1.17 | 0.71 | 92 | 1007.6 |
| 20260509200036 | 11 | 159 | 0.0 | 6.4 | 0.18 | 1.17 | 0.71 | 93 | 1007.7 |
| 20260509194537 | 10 | 131 | 0.0 | 6.4 | 0.20 | 1.17 | 0.71 | 92 | 1007.7 |
| 20260509193036 | 10 | 131 | 0.0 | 11.3 | 0.18 | 1.14 | 0.71 | 92 | 1007.9 |
| 20260509191526 | 11 | 107 | 3.2 | 11.3 | 0.05 | 1.02 | 0.58 | 92 | 1007.9 |
| 20260509190027 | 10 | 117 | 1.6 | 16.1 | 0.05 | 0.99 | 0.56 | 92 | 1007.9 |
| 20260509184522 | 10 | 121 | 3.2 | 17.7 | 0.05 | 0.97 | 0.53 | 92 | 1008.0 |
| 20260509183022 | 10 | 165 | 1.6 | 12.9 | 0.05 | 0.97 | 0.53 | 92 | 1008.0 |
| 20260509181521 | 10 | 116 | 3.2 | 14.5 | 0.08 | 0.97 | 0.53 | 92 | 1008.0 |
| 20260509180018 | 10 | 151 | 3.2 | 8.0 | 0.05 | 0.94 | 0.51 | 92 | 1008.1 |
| 20260509174518 | 10 | 154 | 0.0 | 1.6 | 0.03 | 0.91 | 0.48 | 92 | 1008.2 |
| 20260509173018 | 10 | 154 | 0.0 | 6.4 | 0.03 | 0.91 | 0.48 | 92 | 1008.2 |
| 20260509171516 | 10 | 154 | 0.0 | 4.8 | 0.03 | 0.89 | 0.46 | 92 | 1008.1 |
| 20260509170015 | 10 | 119 | 0.0 | 12.9 | 0.03 | 0.89 | 0.46 | 92 | 1008.2 |
| 20260509164512 | 10 | 144 | 1.6 | 8.0 | 0.03 | 0.89 | 0.46 | 92 | 1008.1 |
| 20260509163018 | 9 | 144 | 0.0 | 11.3 | 0.03 | 0.89 | 0.46 | 92 | 1008.1 |
| 20260509161512 | 9 | 148 | 1.6 | 11.3 | 0.00 | 0.86 | 0.43 | 92 | 1008.1 |
| 20260509160009 | 9 | 111 | 3.2 | 19.3 | 0.00 | 0.86 | 0.43 | 92 | 1008.3 |
| 20260509154506 | 9 | 126 | 1.6 | 14.5 | 0.00 | 0.86 | 0.43 | 91 | 1008.4 |
| 20260509153011 | 9 | 163 | 1.6 | 17.7 | 0.00 | 0.86 | 0.43 | 91 | 1008.6 |
| 20260509151504 | 9 | 120 | 3.2 | 14.5 | 0.00 | 0.86 | 0.43 | 91 | 1008.7 |
| 20260509150008 | 9 | 130 | 1.6 | 14.5 | 0.00 | 0.86 | 0.43 | 91 | 1008.9 |
| 20260509144512 | 9 | 150 | 1.6 | 14.5 | 0.00 | 0.86 | 0.43 | 91 | 1008.7 |
| 20260509143013 | 9 | 107 | 4.8 | 12.9 | 0.00 | 0.86 | 0.43 | 91 | 1008.6 |
| 20260509141502 | 8 | 187 | 1.6 | 12.9 | 0.00 | 0.86 | 0.43 | 91 | 1008.6 |
| 20260509140116 | 8 | 139 | 0.0 | 14.5 | 0.03 | 0.86 | 0.43 | 91 | 1008.8 |
| 20260509134600 | 8 | 155 | 3.2 | 12.9 | 0.05 | 0.86 | 0.43 | 91 | 1009.0 |
| 20260509133104 | 8 | 114 | 1.6 | 11.3 | 0.05 | 0.86 | 0.43 | 91 | 1009.1 |
| 20260509131602 | 8 | 136 | 0.0 | 12.9 | 0.05 | 0.86 | 0.43 | 91 | 1009.1 |
| 20260509130106 | 8 | 146 | 1.6 | 16.1 | 0.03 | 0.84 | 0.41 | 91 | 1009.2 |
| 20260509124606 | 8 | 138 | 3.2 | 12.9 | 0.00 | 0.81 | 0.38 | 91 | 1009.2 |
| 20260509123055 | 8 | 157 | 1.6 | 11.3 | 0.00 | 0.81 | 0.38 | 91 | 1009.3 |
| 20260509121601 | 8 | 124 | 0.0 | 11.3 | 0.03 | 0.81 | 0.38 | 92 | 1009.4 |
| 20260509120051 | 8 | 113 | 0.0 | 8.0 | 0.05 | 0.81 | 0.38 | 92 | 1009.5 |
| 20260509114551 | 8 | 124 | 0.0 | 3.2 | 0.13 | 0.81 | 0.38 | 92 | 1009.6 |
| 20260509113056 | 8 | 124 | 0.0 | 8.0 | 0.15 | 0.81 | 0.38 | 92 | 1009.7 |
| 20260509111556 | 8 | 176 | 1.6 | 4.8 | 0.18 | 0.79 | 0.36 | 92 | 1009.8 |
| 20260509110050 | 8 | 176 | 1.6 | 9.7 | 0.20 | 0.76 | 0.33 | 92 | 1009.9 |
| 20260509104548 | 7 | 160 | 1.6 | 17.7 | 0.20 | 0.71 | 0.28 | 92 | 1009.8 |
| 20260509103046 | 7 | 179 | 0.0 | 0.0 | 0.20 | 0.66 | 0.23 | 92 | 1009.8 |
| 20260509101545 | 7 | 179 | 0.0 | 0.0 | 0.20 | 0.64 | 0.20 | 92 | 1009.8 |
| 20260509100044 | 7 | 179 | 0.0 | 0.0 | 0.18 | 0.56 | 0.13 | 92 | 1009.6 |
| 20260509094544 | 7 | 179 | 0.0 | 3.2 | 0.18 | 0.51 | 0.08 | 92 | 1009.6 |
| 20260509093043 | 7 | 179 | 0.0 | 4.8 | 0.15 | 0.48 | 0.05 | 92 | 1009.6 |
| 20260509091540 | 7 | 180 | 0.0 | 0.0 | 0.10 | 0.43 | 0.00 | 92 | 1009.5 |
| 20260509090041 | 7 | 180 | 0.0 | 0.0 | 0.05 | 0.41 | 0.38 | 92 | 1009.8 |
| 20260509084542 | 7 | 180 | 0.0 | 0.0 | 0.03 | 0.36 | 0.33 | 92 | 1010.1 |
| 20260509083047 | 7 | 180 | 0.0 | 4.8 | 0.03 | 0.36 | 0.33 | 92 | 1010.1 |
| 20260509081537 | 7 | 180 | 0.0 | 0.0 | 0.03 | 0.36 | 0.33 | 92 | 1010.1 |
| 20260509080036 | 7 | 180 | 0.0 | 0.0 | 0.03 | 0.36 | 0.33 | 92 | 1010.1 |
| 20260509074537 | 7 | 180 | 0.0 | 0.0 | 0.03 | 0.36 | 0.33 | 91 | 1010.0 |